{"data":{"norad_id":58057,"epoch":"2026-05-25T04:47:01.913280Z","epoch_age_seconds":57989,"freshness":"FRESH","line1":"1 58057U 23158G   26145.19932770  .00002536  00000+0  10164-3 0  9990","line2":"2 58057  43.0035 314.7526 0001457 268.7202  91.3482 15.27586974145274","mean_motion":15.27586974,"eccentricity":0.0001457,"inclination_deg":43.0035,"raan_deg":314.7526,"arg_perigee_deg":268.7202,"mean_anomaly_deg":91.3482,"bstar":0.00010164,"rev_number":14527,"period_min":94.266318351049,"perigee_km":482.02854168262,"apogee_km":484.02788522582,"semimajor_km":6861.1652134542,"source":"CELESTRAK","updated_at":"2026-05-25T13:38:18.499886Z"}}